Location: Bagnara
(41.0500°N, 14.7833°E)
Time: 15:01:34
(UTC+00:00)

Sich 1 - Pass Details

Date: 20 June 2021
Orbit: 593 x 625 km, 82.5° (Epoch: 31 July)

Event Time Altitude Azimuth Distance (km) Brightness Sun altitude
Rises 02:49:31 0° 176° (S) 2,865 6.1 -6.8°
Reaches altitude 10° 02:51:44 10° 172° (S) 1,970 5.3 -6.5°
Maximum altitude 02:56:01 58° 94° (E) 728 3.8 -5.8°
Drops below altitude 10° 03:00:22 10° 16° (NNE) 2,002 6.6 -5.2°
Sets 03:02:39 0° 12° (NNE) 2,916 7.4 -4.8°
